| time (UTC) | temp F | wind direction | speed MPH | gust MPH | rain 1hr in | rain 24hr in | rain mn in | humidity % | barometer mb |
| 20260504081517 | 44 | 217 | 3.0 | 5.0 | 0.00 | 0.00 | 0.00 | 61 | 1009.8 |
| 20260504050013 | 48 | 252 | 1.0 | 2.0 | 0.00 | 0.00 | 0.00 | 56 | 1009.7 |
| 20260504044529 | 49 | 239 | 2.0 | 5.0 | 0.00 | 0.00 | 0.00 | 54 | 1009.6 |
| 20260504043023 | 50 | 285 | 0.0 | 2.0 | 0.00 | 0.00 | 0.00 | 55 | 1009.7 |
| 20260504041524 | 51 | 219 | 0.0 | 5.0 | 0.00 | 0.00 | 0.00 | 50 | 1009.8 |
| 20260504040010 | 51 | 210 | 4.0 | 7.0 | 0.00 | 0.00 | 0.00 | 49 | 1009.7 |
| 20260504034514 | 52 | 217 | 2.0 | 3.0 | 0.00 | 0.00 | 0.00 | 47 | 1009.6 |
| 20260504033016 | 52 | 269 | 2.0 | 4.0 | 0.00 | 0.00 | 0.00 | 47 | 1009.8 |
| 20260504031526 | 52 | 205 | 2.0 | 5.0 | 0.00 | 0.00 | 0.00 | 48 | 1010.0 |
| 20260504030026 | 51 | 316 | 0.0 | 2.0 | 0.00 | 0.00 | 0.00 | 50 | 1010.1 |
| 20260504024510 | 51 | 240 | 1.0 | 7.0 | 0.00 | 0.00 | 0.00 | 50 | 1010.3 |
| 20260504023016 | 51 | 300 | 5.0 | 15.0 | 0.00 | 0.00 | 0.00 | 50 | 1010.5 |
| 20260504021520 | 51 | 316 | 3.0 | 10.0 | 0.00 | 0.00 | 0.00 | 51 | 1010.7 |
| 20260504020024 | 50 | 314 | 4.0 | 8.0 | 0.00 | 0.00 | 0.00 | 52 | 1010.5 |
| 20260504014507 | 49 | 348 | 2.0 | 7.0 | 0.00 | 0.00 | 0.00 | 54 | 1010.5 |
| 20260504013018 | 50 | 317 | 0.0 | 2.0 | 0.00 | 0.00 | 0.00 | 52 | 1010.4 |
| 20260504011520 | 50 | 340 | 1.0 | 5.0 | 0.00 | 0.00 | 0.00 | 51 | 1010.2 |
| 20260504010023 | 50 | 316 | 0.0 | 2.0 | 0.00 | 0.00 | 0.00 | 53 | 1010.2 |
| 20260504004529 | 50 | 316 | 0.0 | 2.0 | 0.00 | 0.00 | 0.00 | 51 | 1010.1 |
| 20260504003008 | 51 | 316 | 0.0 | 2.0 | 0.00 | 0.00 | 0.00 | 50 | 1009.7 |
| 20260504001518 | 52 | 219 | 0.0 | 2.0 | 0.00 | 0.00 | 0.00 | 46 | 1009.4 |
| 20260504000046 | 53 | 219 | 1.0 | 3.0 | 0.00 | 0.00 | 0.00 | 44 | 1009.2 |
| 20260503234526 | 53 | 226 | 2.0 | 5.0 | 0.00 | 0.00 | 0.00 | 42 | 1009.2 |
| 20260503233027 | 55 | 240 | 2.0 | 5.0 | 0.00 | 0.00 | 0.00 | 40 | 1009.0 |
| 20260503231512 | 54 | 324 | 1.0 | 5.0 | 0.00 | 0.00 | 0.00 | 42 | 1009.0 |
| 20260503230020 | 54 | 305 | 3.0 | 7.0 | 0.00 | 0.00 | 0.00 | 40 | 1009.0 |
| 20260503224522 | 55 | 330 | 4.0 | 8.0 | 0.00 | 0.00 | 0.00 | 40 | 1009.1 |
| 20260503223035 | 55 | 278 | 1.0 | 7.0 | 0.00 | 0.00 | 0.00 | 40 | 1009.2 |
| 20260503221525 | 55 | 323 | 4.0 | 9.0 | 0.00 | 0.00 | 0.00 | 42 | 1009.3 |
| 20260503220016 | 54 | 359 | 3.0 | 12.0 | 0.00 | 0.00 | 0.00 | 42 | 1009.4 |
| 20260503214524 | 53 | 303 | 4.0 | 11.0 | 0.00 | 0.00 | 0.00 | 45 | 1009.5 |
| 20260503213024 | 53 | 279 | 4.0 | 9.0 | 0.00 | 0.00 | 0.00 | 42 | 1009.5 |
| 20260503211527 | 52 | 314 | 3.0 | 13.0 | 0.00 | 0.00 | 0.00 | 44 | 1009.5 |
| 20260503210027 | 52 | 312 | 9.0 | 15.0 | 0.00 | 0.00 | 0.00 | 42 | 1009.6 |
| 20260503204518 | 54 | 349 | 4.0 | 13.0 | 0.00 | 0.00 | 0.00 | 39 | 1009.2 |
| 20260503203029 | 54 | 346 | 9.0 | 19.0 | 0.00 | 0.00 | 0.00 | 39 | 1009.3 |
| 20260503201532 | 53 | 336 | 7.0 | 18.0 | 0.00 | 0.00 | 0.00 | 40 | 1009.4 |
| 20260503200012 | 53 | 304 | 7.0 | 16.0 | 0.00 | 0.00 | 0.00 | 38 | 1009.5 |
| 20260503194518 | 53 | 346 | 8.0 | 15.0 | 0.00 | 0.00 | 0.00 | 39 | 1009.6 |
| 20260503193028 | 53 | 345 | 5.0 | 12.0 | 0.00 | 0.00 | 0.00 | 39 | 1009.7 |
| 20260503191525 | 53 | 314 | 7.0 | 15.0 | 0.00 | 0.00 | 0.00 | 37 | 1009.9 |
| 20260503190012 | 53 | 304 | 7.0 | 15.0 | 0.00 | 0.00 | 0.00 | 36 | 1010.0 |
| 20260503184514 | 53 | 320 | 7.0 | 17.0 | 0.00 | 0.00 | 0.00 | 35 | 1010.4 |
| 20260503183025 | 53 | 338 | 9.0 | 16.0 | 0.00 | 0.00 | 0.00 | 35 | 1010.6 |
| 20260503181527 | 52 | 297 | 8.0 | 22.0 | 0.00 | 0.00 | 0.00 | 36 | 1010.7 |
| 20260503180029 | 51 | 351 | 6.0 | 15.0 | 0.00 | 0.00 | 0.00 | 38 | 1010.9 |
| 20260503174516 | 50 | 355 | 9.0 | 15.0 | 0.00 | 0.00 | 0.00 | 37 | 1011.0 |
| 20260503173036 | 51 | 352 | 11.0 | 18.0 | 0.00 | 0.00 | 0.00 | 36 | 1011.3 |
| 20260503171533 | 51 | 307 | 7.0 | 14.0 | 0.00 | 0.00 | 0.00 | 38 | 1011.4 |